Location: Unspecified
(0.0000°N, 0.0000°E)
Time: 07:17:44
(UTC+00:00)

Cosmos 489 Rocket - Pass Details

Date: 27 January 2013
Orbit: 952 x 984 km, 74.0° (Epoch: 23 May)

Event Time Altitude Azimuth Distance (km) Brightness Sun altitude
Rises 20:03:21 0° 192° (SSW) 3,636 7.9 -26.1°
Reaches altitude 10° 20:05:53 10° 192° (SSW) 2,685 7.2 -26.7°
Maximum altitude 20:12:06 89° 103° (ESE) 956 4.3 -28.2°
Enters shadow 20:12:43 74° 17° (NNE) 988 4.3 -28.3°
